Find OneWeb SL0425

NORAD ID: 51628 Int'l Des: 2022-012 Owner: ONEWEBN Country: UK Constellation: oneweb operational
LEOCIRCULARPOLARONEWEB_TYPE

リアルタイム位置

3D地球を読み込み中...

OneWeb SL0425について

説明を読み込み中...

次回通過

Passes for default location (London). Set your location on the main map for personalized predictions.

高度履歴

Loading altitude history...

軌道要素

1 51628U 22012G 26124.81291580 -.00000387 00000-0 -11461-2 0 9993
2 51628 87.8861 44.8979 0001935 88.4440 271.6909 13.10373705203648
Epoch: May 4, 2026 • Age: 11 hours

現在のステータス

高度 1251.9 km
速度 7.23 km/s
衛星直下点 -85.06°S, 65.47°E
打ち上げ日 Feb 10, 2022
運用期間 4.2 years
タイプ internet

技術仕様

分類 Payload
質量 148.00 kg
乾燥質量 140.00 kg
総質量 148.00 kg
長さ 1.30 m
直径 1.00 m
スパン 5.00 m
形状 Trapezoid+2 pan
製造者 ONEWUS
バスタイプ ARROW
フェーズステータス In Orbit
所有者/国 ONEWEBN/UK

Most Searched